User: anonymous   Login
Location: UBC Liquid-Mirror Observatory
(49.2876°N, 122.5728°W)
Time: 12:32:36
(UTC-08:00)
Language:

KITSAT 1 - Orbit

View from above orbital plane
View from above orbital plane
View from above satellite
View from above satellite

Ground track
Ground track

The orbit data is extracted from the following two-line orbital elements,

1 22077U 92052B   15060.65441292 -.00000030  00000-0  12748-3 0  9990
2 22077 066.0839 282.9831 0005944 341.1610 050.9755 12.86502152 59527
Epoch (UTC): 01 March 2015 15:42:21
Eccentricity: 0.0005944
inclination: 66.0839°
perigee height: 1311 km
apogee height: 1320 km
right ascension of ascending node: 282.9831°
argument of perigee: 341.1610°
revolutions per day: 12.86502152
mean anomaly at epoch: 50.9755°
orbit number at epoch: 5952

The dashed part of the orbit path shows where the satellite is in the earth's shadow,  

DLR